Location: Clover
(42.5131°N, 114.6874°W)
Time: 00:08:37
(UTC+00:00)

Courier 1B Rocket - Visible Passes

Search period start: 05 November 2024 00:00
Search period end: 15 November 2024 00:00
Orbit: 920 x 1201 km, 28.2° (Epoch: 04 November)

Date Brightness Start Highest point End Pass type
(mag) Time Alt. Az. Time Alt. Az. Time Alt. Az.
05 Nov 6.8 03:16:38 10° SSW 03:18:53 17° SSW 03:18:53 17° SSW visible
06 Nov 6.6 02:16:24 10° SSW 02:20:04 16° SSE 02:21:32 15° SSE visible
06 Nov 7.4 04:07:47 10° SW 04:07:53 10° SW 04:07:53 10° SW visible
07 Nov 6.9 01:16:34 10° S 01:19:16 13° SSE 01:21:58 10° SE visible
07 Nov 6.6 03:07:04 10° SW 03:10:31 20° S 03:10:31 20° S visible
08 Nov 6.6 02:06:31 10° SSW 02:10:45 19° S 02:13:09 15° SE visible
08 Nov 7.3 03:58:37 10° SW 03:59:31 13° SW 03:59:31 13° SW visible
09 Nov 6.9 01:06:10 10° SSW 01:09:56 16° SSE 01:13:40 10° SE visible
09 Nov 6.5 02:57:43 10° SW 03:02:08 21° S 03:02:08 21° S visible
10 Nov 6.6 01:56:55 10° SW 02:01:28 21° S 02:04:46 14° SE visible
10 Nov 7.1 03:49:38 10° SW 03:51:08 15° SW 03:51:08 15° SW visible
11 Nov 6.8 00:56:14 10° SW 01:00:37 19° S 01:04:55 10° SE visible
11 Nov 6.5 02:48:31 10° SW 02:53:01 21° S 02:53:47 20° S visible
12 Nov 6.6 01:47:31 10° SW 01:52:11 22° S 01:56:27 11° SE visible
12 Nov 7.1 03:40:52 10° SW 03:42:49 15° SSW 03:42:49 15° SSW visible
13 Nov 6.8 00:46:35 10° SW 00:51:19 21° S 00:55:56 10° SE visible
13 Nov 6.7 02:39:28 10° SW 02:43:43 19° S 02:45:32 17° S visible
14 Nov 6.8 01:38:14 10° SW 01:42:53 21° S 01:47:26 10° SE visible
14 Nov 7.2 03:32:34 10° SW 03:34:40 13° SSW 03:34:40 13° SSW visible
